METEOR 2-11 DEB, 40318

Orbit data source: Space-Track

METEOR 2-11 DEB, 40318 is space debris in LEO originally from a launch on Thu, 05 Jul 1984 UTC launched from the Plesetsk Missile And Space Complex (PKMTR). Debris objects in space refer to the collection of defunct objects orbiting the Earth. Examples of debris include non-operational satellites, rocket bodies, and fragments generated from explosions, collisions, or faulty payload assembly.

Loading next visibility...
METEOR 2-11 DEB details
Identifier
40318, 1984-072D
Orbit
LEO
Last TLE update1 day ago
Origin
Flag of CISVVKO (CIS)
ManufacturerUnknown
MissionSpacecraft
Bus & MotorUnknown
MassUnknown
Launch date (UTC)
1984-07-05 (40 years ago)
Launch vehicleUnknown
Launch site
Plesetsk Missile And Space Complex (PKMTR)
Object type
Payload
Rocket body
Debris
Shape & HBRUnknown
Radar Cross SectionSmall (<0.1 m²)

Expand to show TLE details & history

TLE from 1 day ago
0 METEOR 2-11 DEB
1 40318U 84072D   24360.52306992  .00006472  00000-0  48896-2 0  9994
2 40318  82.5263  96.4593 0023124 120.1837 253.0751 13.93805835514226
Epoch: 2024-12-25T12:33Z
Definitive object data (Epoch: 2024-12-25T12:33:13.241Z)
Latitude12.85565°
Longitude175.34517°
Altitude922.433 km
Speed7.389 km/s
True Right ascension06h 32m 39s
True Declination12° 46' 59"
Sunlit
Object was in full shadow at TLE epoch
Visualization TLE readout
Latitude80.80215°
Longitude-61.06078°
Altitude912.967 km
Speed7.41 km/s
Apparent Right ascension06h 20m 50s
Apparent Declination37° 03' 23"
Sunlit
Object is in daylight
Visualization observer readout
Local Sidereal Time17:36:38
Azimuth350.991° N
Elevation-12.361°
Doppler factor1
Orbital elements
Apogee altitude929.322 km
Perigee altitude895.604 km
Semi-major axis7,290.6 km
Eccentricity0.0023124
Inclination82.5263°
RAAN96.4593°
Arg. of periapsis120.1837°
True anomaly252.82181°
Mean anomaly253.0751°
Eccentric anomaly252.94843°
Mean motion3.48657 °/min
BSTAR0.0048896
Orbital period103.25 mins
Loading maneuver chart data...
Loading historical data...
Loading historical data...
Loading historical data...
Loading historical data...
Loading historical data...
Loading historical data...
Loading historical data...

METEOR 2-11 DEB Visibility forecast

Observer location: undefined°, undefined

Span
Click to sort rows by Start time (UTC) header in descending order
Start Az.
Max El. time (UTC)
Max El. Az.
Max El.
End time (UTC)
End Az.
11 mins2024-12-26 18:21:10.812Z355.12° N2024-12-26 18:27:10.812Z127.806° SE43.9°2024-12-26 18:32:10.812Z168.844° S
6 mins2024-12-27 05:59:10.812Z116.959° SE2024-12-27 06:02:10.812Z81.221° E18.115°2024-12-27 06:05:10.812Z47.175° ENE
10 mins2024-12-27 07:41:10.812Z206.947° SW2024-12-27 07:45:10.812Z264.4° W39.248°2024-12-27 07:51:10.812Z358.53° N
|